RH
75 77 78 79 78 78 79 79 80 81 81 81 80 77 75 72 71 71 71 70 70 70 71 70 70 73 74 74 71 69 70 70 67 64 60 57 56 57 59 60 61 60 59 59 57 54 54 56 60 60 59 58 58 58 58 56 56 59 60 59 59 61 62 66 78 79 67 58 58 57 56 57 57 55 56 58 57 59 60 61 62 63 64 64 63
75 76 77 79 79 78 79 80 81 82 81 82 81 78 77 74 72 72 73 72 71 72 72 71 72 74 74 74 72 68 68 69 68 65 61 58 57 56 58 60 61 61 60 60 59 58 56 57 60 61 61 61 60 59 57 56 58 60 61 62 62 61 62 64 70 78 73 62 60 62 60 61 61 58 59 61 62 64 65 64 64 64 63 62 62
74 75 77 78 78 78 79 80 82 83 82 82 82 79 78 76 75 73 74 73 72 73 73 72 73 74 73 72 71 69 68 67 67 65 63 60 59 57 58 59 60 61 61 60 60 59 57 57 60 60 61 63 61 58 58 57 58 61 61 62 62 61 62 62 65 73 74 67 64 64 63 64 64 62 62 64 66 67 66 62 60 60 59 57 58
74 75 77 78 78 79 79 80 82 83 83 82 81 80 79 78 77 76 75 75 75 74 74 74 73 73 73 71 71 71 70 68 67 66 64 61 59 59 60 59 59 60 61 60 61 60 58 57 58 59 60 62 61 58 59 59 58 60 62 62 62 62 61 63 65 68 70 69 66 64 65 68 68 67 68 69 69 68 66 62 60 60 59 58 58
73 75 77 78 79 80 80 81 82 83 83 82 81 81 80 78 77 77 76 76 77 77 77 76 75 73 73 72 72 71 70 69 68 67 66 63 61 59 60 61 61 58 59 62 63 62 62 61 60 59 58 59 60 59 61 62 60 61 62 62 62 62 61 61 63 65 66 68 67 66 69 70 69 70 71 70 69 69 67 65 64 64 62 60 60
71 74 76 78 79 80 80 81 82 82 82 82 81 81 80 79 77 77 77 77 78 78 78 78 76 75 73 72 71 70 70 70 69 68 68 66 64 61 60 61 61 59 61 65 65 63 63 64 63 60 59 60 62 62 62 62 61 61 62 62 62 63 63 62 61 62 65 66 67 70 72 72 69 66 65 66 68 69 69 68 67 67 65 62 61
70 73 75 77 79 80 80 80 80 81 82 81 81 81 80 80 78 77 77 77 78 79 79 79 78 76 75 73 71 70 70 71 71 71 71 69 67 64 62 60 60 62 65 67 67 64 62 63 64 63 62 62 61 61 60 60 61 62 62 63 63 63 64 63 62 64 66 68 69 71 72 72 70 66 64 66 70 71 72 73 72 68 65 64 64
69 72 74 76 78 79 79 79 79 80 81 81 81 81 80 79 78 77 77 78 78 78 78 79 79 78 77 75 73 73 72 73 73 73 73 72 70 67 64 62 62 65 68 68 68 67 64 63 64 63 62 62 60 58 58 59 61 63 63 62 63 64 64 65 66 66 69 71 73 73 73 73 71 70 70 73 77 76 73 73 72 68 66 66 67
67 71 73 75 77 78 78 79 79 79 80 81 81 81 80 79 78 77 77 77 78 77 78 79 79 80 79 78 77 76 76 75 74 74 74 73 73 70 67 64 64 67 70 70 71 71 68 66 64 62 60 60 60 59 59 60 62 63 63 63 64 65 67 70 70 70 74 78 78 76 77 76 71 71 74 76 77 76 72 71 70 68 69 71 69
66 69 72 74 75 76 77 78 79 79 80 80 81 81 80 79 78 77 77 77 77 77 78 79 79 80 81 80 80 79 78 76 74 73 73 72 73 73 70 67 67 70 72 73 73 73 72 69 66 63 61 61 61 62 61 63 63 63 63 65 66 68 69 71 72 73 77 80 77 76 79 77 71 72 77 77 75 75 73 73 72 70 73 77 74
65 67 69 72 73 74 76 77 78 79 79 80 80 80 80 79 77 77 76 76 77 76 77 78 78 79 80 81 81 80 79 77 76 74 73 73 73 72 70 69 69 72 75 74 73 73 74 72 69 67 66 64 63 63 65 65 64 62 62 64 67 68 67 67 68 70 74 77 75 75 78 77 74 76 80 79 77 76 75 74 74 76 78 81 81
62 65 67 70 72 73 75 76 77 78 79 79 80 80 80 79 77 76 76 75 76 76 76 76 75 76 78 78 80 80 78 77 76 76 75 75 74 71 70 72 74 75 76 75 73 73 73 73 72 70 68 66 65 67 67 66 64 61 62 65 65 63 62 62 62 64 68 72 73 74 76 79 78 79 80 81 81 79 78 77 78 80 81 82 85
59 63 65 67 71 73 74 75 76 77 78 78 79 80 80 79 78 77 75 74 75 76 76 75 74 74 74 75 77 77 76 77 77 78 77 76 74 72 73 76 78 78 78 76 73 72 73 74 73 70 67 65 66 68 68 66 63 58 59 64 65 62 61 60 61 64 68 74 78 77 76 79 83 81 80 83 85 83 81 80 81 82 83 81 78
57 60 63 65 69 72 73 75 75 76 77 77 79 80 79 79 78 76 75 74 74 75 75 75 74 74 73 74 75 75 76 78 79 79 78 76 75 74 76 79 79 78 79 78 74 72 73 73 70 69 68 65 65 68 68 60 49 46 54 64 65 61 60 61 65 71 76 80 82 80 76 79 85 84 81 84 89 88 87 86 85 81 76 70 66
55 59 61 63 66 70 72 74 74 75 75 77 78 79 79 79 78 76 75 74 73 74 74 74 73 74 74 75 76 77 79 81 81 80 79 79 77 76 78 81 81 80 80 78 74 73 74 72 70 69 69 68 68 69 63 49 39 45 58 64 61 60 62 66 70 76 78 78 81 82 80 80 82 82 82 84 88 88 86 84 78 70 65 64 64
54 57 61 62 65 68 71 72 73 74 74 76 77 78 79 79 78 77 75 74 74 73 72 73 73 73 75 77 78 81 83 83 83 82 81 81 79 78 80 83 83 81 80 78 77 76 75 73 72 71 71 71 71 66 57 47 46 56 63 62 62 64 65 68 73 77 79 80 83 84 80 76 74 74 77 81 81 78 76 73 67 64 66 70 70
51 55 59 61 63 66 69 71 72 73 73 75 76 77 78 78 78 77 76 76 75 73 72 73 75 76 77 78 80 83 85 84 84 82 82 82 80 80 82 84 84 83 81 81 81 79 77 75 74 74 73 69 66 61 53 50 54 62 65 64 66 68 64 65 73 79 81 83 82 79 75 73 72 71 73 75 72 67 68 69 66 66 70 76 78
49 52 56 58 60 64 67 69 71 72 73 74 74 76 77 78 78 77 77 76 75 74 74 76 78 78 78 78 79 81 83 82 81 80 80 81 81 82 83 85 87 87 86 86 84 80 79 79 79 76 68 61 60 57 51 52 57 61 63 65 69 69 64 67 78 86 86 82 79 77 77 76 75 72 71 67 62 60 66 71 72 74 81 85 85
46 48 51 54 57 60 64 67 69 71 72 73 73 75 75 76 78 77 77 77 76 76 77 79 80 79 77 77 77 78 78 78 77 77 77 80 82 84 85 88 90 90 90 88 86 83 81 82 81 72 60 57 60 55 48 51 57 61 63 69 73 71 69 76 88 91 87 82 80 80 78 76 73 69 63 58 57 62 68 68 67 70 74 73 71
44 44 46 50 53 57 61 65 68 70 72 73 73 74 75 77 79 80 79 78 78 79 80 79 79 80 79 77 76 76 76 75 76 77 78 80 83 85 88 91 92 92 92 89 88 86 82 80 77 68 59 59 58 51 49 55 61 64 67 73 77 78 81 88 94 92 87 84 81 76 72 70 67 61 58 57 61 66 66 61 57 56 56 54 53
42 42 44 47 50 54 58 62 66 68 71 74 74 75 77 79 81 82 82 81 80 81 82 81 80 82 81 79 78 78 77 76 76 78 81 83 84 86 89 91 91 92 93 90 87 84 80 76 72 66 62 60 55 52 57 62 64 66 69 74 82 88 92 96 95 91 84 77 70 66 64 63 60 58 59 62 63 63 60 56 55 53 50 49 51
41 42 44 45 48 52 56 61 65 69 72 75 77 79 81 83 84 85 84 83 83 85 86 85 84 86 85 82 80 79 78 77 77 78 81 84 86 88 90 91 91 91 92 90 86 82 77 73 69 65 62 59 56 57 61 62 62 65 71 79 88 94 98 99 91 81 71 64 62 62 59 57 58 61 64 64 60 58 56 55 55 51 46 45 50
40 41 43 45 48 52 58 62 67 71 76 78 79 83 86 88 88 87 85 85 88 90 91 90 89 89 88 86 83 81 80 80 79 80 82 85 88 90 91 92 91 89 88 86 82 77 74 69 65 63 61 59 59 60 61 60 63 69 76 84 90 96 98 90 77 66 60 58 58 55 53 57 64 65 62 58 56 55 55 55 51 44 42 44 46
42 42 45 49 52 56 62 68 71 76 81 82 83 88 92 92 91 89 87 89 92 94 95 93 91 91 90 88 86 83 82 82 82 82 84 87 91 93 92 91 90 87 82 78 73 71 69 63 58 57 57 59 63 65 67 70 74 77 81 85 90 90 84 71 62 58 55 55 54 53 56 63 68 66 61 56 55 55 54 52 46 40 40 43 41
51 49 51 56 61 66 72 76 78 82 84 86 88 92 94 94 93 93 92 93 95 97 96 94 91 91 91 88 86 85 84 83 84 86 88 91 94 95 93 91 90 86 79 72 67 65 62 56 54 56 61 67 72 74 77 79 77 73 74 78 78 72 64 58 56 55 53 53 55 56 58 62 65 68 65 59 55 55 52 48 43 39 39 39 36
64 63 66 70 73 77 82 84 86 89 90 91 94 96 96 96 97 98 97 95 96 96 95 93 92 91 91 89 87 87 86 85 87 91 95 97 97 95 92 89 85 81 75 69 66 65 62 61 63 68 73 77 78 78 79 74 66 62 65 67 62 55 53 54 53 51 52 54 56 57 59 61 65 69 67 59 55 53 48 43 40 38 37 37 37
81 80 81 83 85 87 89 91 94 96 97 98 99 99 98 97 96 96 96 95 96 96 94 94 94 94 93 92 91 91 90 89 90 94 98 100 98 94 90 86 80 75 72 71 70 70 71 75 78 80 82 83 82 80 74 65 58 58 58 55 51 48 50 53 53 54 55 55 56 59 61 63 68 72 67 58 52 47 42 39 40 39 37 37 39
93 94 94 94 95 95 96 98 100 100 99 98 97 96 95 92 92 94 94 92 92 95 94 94 93 92 92 95 97 97 96 92 90 92 96 99 98 94 89 83 77 74 76 78 79 80 81 83 85 85 85 86 84 80 69 58 56 57 54 52 52 52 53 55 56 57 56 57 61 65 65 68 76 76 64 50 43 40 39 40 40 38 37 38 41
97 99 99 98 99 100 100 99 97 96 96 97 97 96 94 91 92 93 93 89 85 86 87 88 88 88 88 91 95 97 97 91 86 86 91 95 96 93 87 80 76 78 81 81 82 83 84 84 83 83 86 87 84 77 66 57 56 56 54 54 56 56 57 60 60 58 59 63 67 69 66 65 64 59 48 40 39 40 40 39 39 38 38 40 43
97 99 100 100 99 97 96 95 94 95 98 99 99 98 96 94 91 89 88 86 81 79 79 80 82 84 85 86 87 85 84 82 80 81 84 86 87 84 77 70 70 76 80 78 76 76 79 81 82 82 84 84 80 73 65 59 55 55 55 56 57 58 61 62 62 63 67 68 67 61 55 49 45 43 41 41 41 40 38 37 39 40 39 41 43
99 100 100 99 97 94 94 95 96 99 99 98 96 97 96 94 90 86 84 83 81 81 80 79 79 80 82 83 83 78 75 74 76 78 77 73 72 70 65 61 62 66 69 70 73 76 79 81 83 82 82 81 79 74 67 61 56 55 56 56 58 60 60 61 64 70 70 64 55 48 42 39 40 41 41 40 38 38 39 40 40 39 38 39 42
96 98 99 97 96 94 94 96 97 97 96 95 94 93 94 95 94 91 88 84 82 83 82 80 79 77 75 75 76 76 75 74 74 76 75 70 66 63 61 61 61 61 63 68 75 79 81 80 80 81 82 80 76 71 66 62 60 59 60 62 64 64 62 62 67 70 64 53 45 41 39 39 40 39 38 37 37 39 41 41 39 38 38 38 39
92 95 95 94 93 91 90 93 94 94 94 94 92 91 91 94 97 97 94 88 84 80 77 76 77 75 72 69 69 70 72 73 74 77 78 76 72 69 69 69 68 68 71 76 80 82 82 81 81 82 81 76 70 66 66 66 66 66 68 69 68 68 69 69 66 61 52 44 40 40 39 39 40 38 36 37 39 42 42 40 37 37 38 37 37
88 90 90 90 90 91 91 92 93 93 91 90 89 89 89 91 93 95 94 92 88 84 79 77 77 76 73 71 70 69 69 70 72 73 73 74 75 75 77 79 80 80 81 81 83 84 85 84 84 83 77 71 68 66 64 61 58 58 59 58 56 60 67 66 57 48 45 42 41 43 43 42 39 36 36 39 42 42 39 37 36 35 35 36 38
86 88 89 89 90 91 91 91 90 90 89 88 87 88 88 89 89 89 90 90 90 89 86 82 79 78 76 75 75 73 69 68 69 70 71 73 75 79 84 90 93 93 92 90 88 89 88 85 82 77 69 62 60 58 54 50 49 50 49 48 48 53 58 56 48 45 45 42 38 38 40 40 38 37 38 41 41 39 36 35 34 34 34 37 39
87 87 87 88 88 87 88 89 88 88 88 87 86 86 86 86 85 84 84 85 86 88 89 86 84 82 80 77 76 75 72 71 71 71 73 75 76 78 85 93 97 98 98 97 94 92 89 82 75 67 59 54 52 52 50 49 50 50 49 49 50 51 51 50 48 47 45 39 34 33 36 39 39 40 42 41 38 36 35 33 33 35 37 38 40
87 86 86 86 86 85 87 87 86 86 85 85 85 85 84 83 82 81 82 83 84 86 87 86 85 84 83 80 78 75 73 74 75 75 78 80 79 77 79 85 92 96 96 96 95 93 88 80 69 60 55 52 51 51 51 50 51 50 49 50 50 50 51 51 48 45 43 41 40 41 43 43 41 40 40 38 36 35 34 34 36 38 38 37 40
83 83 83 83 82 83 85 86 85 85 85 85 85 84 83 82 81 80 80 81 82 82 83 83 82 80 79 80 78 76 75 77 80 83 85 86 85 83 80 79 82 85 85 86 88 88 86 79 67 57 54 53 52 51 51 51 52 51 50 50 51 51 51 48 42 39 39 40 41 43 43 41 39 38 38 37 35 34 35 36 39 39 37 38 42
78 78 78 78 78 80 83 85 86 86 86 86 85 84 83 83 82 80 79 80 80 79 78 79 78 75 74 76 78 78 79 81 82 86 88 87 86 84 81 77 77 77 77 78 79 80 80 75 64 55 53 52 50 50 50 51 52 52 51 51 51 50 48 43 37 36 37 38 38 40 42 41 40 39 38 37 35 35 37 39 39 39 40 42 44
74 75 76 76 77 80 82 83 85 86 86 86 85 84 84 85 84 82 80 80 81 80 76 75 75 73 71 71 74 75 78 80 81 83 86 87 84 81 77 75 74 73 72 72 71 71 69 64 56 53 53 52 49 50 51 52 52 52 51 51 50 49 46 40 33 31 33 33 33 36 41 42 40 39 38 36 35 36 39 40 40 41 42 43 44
72 74 74 73 74 78 80 82 82 82 83 84 84 83 84 84 83 82 81 80 80 80 77 73 72 69 65 64 66 68 69 73 77 81 83 83 82 79 75 72 70 67 66 66 64 61 58 55 54 54 53 51 50 51 53 53 52 51 50 50 49 47 44 38 31 29 30 32 34 37 40 40 39 38 37 36 36 37 39 41 42 42 42 43 44
72 73 73 72 73 75 77 79 79 79 80 82 82 81 82 82 81 81 80 80 79 79 77 74 71 67 63 63 66 68 68 69 74 78 80 81 79 77 73 69 66 64 63 63 61 58 56 56 57 56 53 51 53 54 53 52 51 50 50 50 49 46 41 35 30 29 30 33 36 39 40 39 38 38 38 37 37 38 41 44 45 43 43 44 44
73 73 72 72 71 70 72 74 75 75 77 79 80 79 79 79 80 79 78 79 78 76 75 76 73 66 63 65 67 69 69 70 72 75 77 78 78 77 74 71 66 63 61 60 59 59 59 57 56 53 51 51 54 53 52 51 50 51 51 49 46 42 37 32 30 30 32 35 39 40 39 39 39 38 37 36 37 41 45 47 46 45 45 44 42
75 75 75 73 69 67 69 71 71 72 73 73 75 77 77 77 79 80 78 78 77 74 74 74 69 62 61 66 70 71 71 71 71 72 73 74 75 73 71 70 65 60 57 58 58 58 56 54 52 51 50 51 52 51 51 51 51 51 50 47 43 40 37 33 31 32 34 36 39 39 38 39 38 36 31 28 34 44 50 49 48 48 46 43 40
74 76 77 77 74 72 71 69 67 68 69 70 72 76 77 78 79 79 77 76 76 74 73 70 64 59 60 66 70 72 71 69 68 67 66 65 64 62 60 60 60 57 56 57 58 56 53 53 52 52 52 51 51 51 51 51 50 49 48 47 46 45 41 35 32 34 37 39 40 40 40 39 36 32 24 18 26 42 51 50 50 50 46 40 38
75 76 77 78 79 80 80 76 72 73 76 77 76 77 78 79 79 78 78 77 75 73 70 67 62 61 62 63 66 69 68 65 63 62 61 60 60 58 57 57 58 59 58 57 56 54 54 54 54 53 53 52 52 52 52 51 51 51 51 50 50 48 41 35 33 35 38 39 38 37 37 32 27 25 19 15 23 41 52 53 51 49 43 39 39
77 79 82 83 81 81 83 84 83 82 82 80 76 75 78 79 78 76 76 75 73 70 67 64 63 62 60 58 59 62 62 61 60 62 64 64 64 63 61 59 59 60 61 58 56 56 56 55 54 53 53 52 51 51 51 52 52 53 52 52 50 45 39 35 33 31 31 31 31 30 27 23 20 19 16 18 30 47 54 54 51 47 42 41 41
79 81 84 85 81 79 80 82 84 82 77 73 71 70 72 75 78 79 78 74 69 66 64 63 64 65 61 57 57 58 58 59 61 63 66 67 67 66 65 62 60 61 62 60 58 58 57 56 54 53 52 51 51 51 51 52 53 54 54 54 50 44 38 34 32 31 31 33 33 31 26 22 20 18 18 24 40 54 57 54 52 48 44 43 42
81 82 83 82 78 76 76 79 82 80 75 74 74 69 65 67 73 77 77 72 66 62 60 61 64 66 64 61 60 59 58 59 60 62 65 66 65 63 63 61 60 61 61 60 59 59 57 55 55 53 52 51 50 50 52 52 53 53 53 52 50 46 40 35 34 35 36 37 37 34 26 21 20 19 21 31 48 58 57 54 51 48 46 45 42
80 78 77 77 77 76 73 73 76 76 72 72 72 67 60 61 64 66 66 66 64 60 58 58 59 61 61 61 60 59 57 57 58 60 63 64 62 59 58 58 59 61 61 60 60 60 58 56 55 53 52 52 51 50 51 51 50 51 51 49 47 47 43 40 38 38 38 41 42 35 26 22 21 19 21 35 53 60 56 53 52 50 46 42 38
71 70 69 70 75 76 72 68 71 74 75 75 73 67 59 55 54 55 58 61 61 59 58 56 54 55 58 60 59 56 56 56 57 59 62 62 59 56 56 58 60 60 60 61 61 60 57 56 55 54 53 52 50 49 50 49 48 49 50 48 46 45 44 43 42 41 42 45 43 34 26 23 20 16 23 42 59 61 55 53 52 48 42 37 35
Wind_Speed
44 43 43 43 43 43 43 42 41 39 39 38 38 40 40 40 40 39 38 39 39 39 38 38 39 39 39 38 37 37 37 37 35 35 33 31 30 29 28 29 29 29 28 27 26 26 27 27 24 22 20 19 18 17 17 16 16 16 14 13 12 10 10 11 9 9 11 11 10 10 8 8 10 10 11 12 12 12 12 14 16 17 18 19 20
44 44 43 43 44 44 44 43 41 39 39 38 39 40 40 40 40 39 39 40 40 40 39 39 39 40 40 40 39 38 38 38 37 37 36 34 33 32 31 31 31 30 30 30 30 29 29 28 26 23 20 18 18 18 17 16 16 17 16 14 13 12 12 13 12 11 12 13 12 11 10 10 11 10 11 13 14 13 14 15 16 18 18 18 19
44 44 44 44 45 45 44 42 40 40 40 39 40 41 40 40 40 40 40 41 41 41 40 39 39 40 41 41 40 40 39 39 39 39 38 36 35 35 34 34 33 33 33 33 32 30 30 30 28 25 22 19 19 18 18 17 16 17 17 15 14 13 12 14 15 14 14 15 14 13 12 11 11 11 11 12 15 16 16 16 16 17 17 18 19
43 43 43 44 44 44 43 42 40 40 40 40 41 42 40 39 39 40 41 40 41 41 40 40 40 40 41 41 41 41 40 40 40 40 40 39 38 37 36 36 36 36 36 35 33 31 30 30 29 26 24 23 22 20 19 18 17 16 16 15 14 13 13 14 16 16 16 15 14 14 13 12 12 12 11 13 15 16 16 17 17 17 17 18 19
41 42 42 42 42 43 43 41 41 41 42 42 42 42 41 39 40 40 41 40 41 41 40 40 41 42 42 42 42 42 41 41 41 41 41 40 39 38 37 37 36 37 37 35 32 31 31 30 29 26 24 25 23 21 19 17 16 15 15 15 15 14 13 14 16 17 18 17 16 15 14 13 14 13 12 13 15 16 16 17 17 18 18 17 18
40 41 41 40 41 42 42 42 42 42 43 43 43 42 41 40 40 41 41 41 40 40 41 41 42 43 43 42 42 42 42 42 42 42 41 40 39 38 37 37 37 37 36 34 32 32 31 30 28 26 25 24 22 20 19 17 16 16 16 16 16 15 16 16 16 17 19 19 18 17 16 15 15 15 14 13 14 16 17 17 17 18 17 17 17
40 41 41 41 41 42 42 43 44 44 44 45 44 42 42 42 41 41 42 41 40 40 41 42 43 43 42 41 41 42 42 42 41 41 39 38 38 38 38 38 37 36 34 33 32 32 31 30 28 26 24 23 22 21 19 18 18 18 18 17 16 16 17 18 19 18 18 19 19 18 17 16 15 16 16 14 14 16 17 18 18 17 15 16 17
40 41 41 41 41 42 44 45 45 45 45 44 43 42 42 42 42 42 41 40 41 41 42 42 42 41 41 41 40 40 40 40 40 39 38 38 38 39 40 39 38 35 33 33 32 31 31 30 29 26 25 23 23 22 20 19 18 18 17 16 16 17 19 20 20 19 18 18 18 17 17 17 17 17 17 15 14 16 15 16 17 17 15 15 17
40 40 41 42 43 43 44 44 44 44 44 43 43 42 42 42 42 41 40 41 41 41 41 40 39 39 39 39 38 38 38 39 40 39 39 39 39 39 40 40 38 35 33 32 31 30 30 30 29 28 27 26 24 22 20 19 18 18 17 15 15 17 18 18 18 17 16 16 17 17 16 18 20 19 17 15 15 15 14 13 15 17 16 16 18
40 40 41 43 44 43 43 43 42 43 43 43 43 43 42 42 41 40 40 41 41 40 38 37 37 37 37 37 37 37 38 39 40 41 42 41 40 38 39 40 39 35 32 31 29 29 29 28 28 28 27 25 24 21 20 20 19 18 16 15 15 16 15 15 16 16 16 16 18 17 15 18 22 19 17 17 16 15 14 14 15 17 16 16 17
41 41 42 42 42 42 42 42 42 42 43 44 43 43 43 42 41 40 40 40 39 38 36 36 37 37 37 37 37 38 40 40 41 42 42 41 39 38 39 40 39 36 32 31 30 29 27 26 26 25 24 24 22 20 20 19 18 17 16 15 16 17 16 16 17 18 18 18 19 19 18 20 22 19 17 18 17 16 16 16 16 16 14 13 13
41 42 42 41 41 42 42 42 42 42 43 43 43 43 42 41 40 40 39 38 37 36 35 36 37 37 37 38 38 39 41 42 43 42 41 40 39 39 40 40 38 35 32 31 31 30 27 25 24 23 24 24 22 20 20 19 17 17 16 15 16 18 18 20 21 22 22 21 22 22 21 21 20 19 19 19 18 17 17 15 15 14 15 13 13
41 41 41 40 41 43 43 42 42 43 43 44 43 41 40 40 40 39 38 37 36 35 35 36 36 36 38 38 39 40 41 41 41 40 39 40 40 41 40 37 35 34 32 32 32 30 28 26 25 25 25 25 23 22 20 19 18 17 17 17 17 18 19 22 23 23 23 22 22 23 22 20 19 20 19 18 18 17 15 15 15 15 15 15 15
39 39 40 40 42 42 42 42 43 43 43 42 40 39 39 40 40 38 36 35 34 34 35 36 36 37 38 39 39 40 40 39 38 38 39 39 39 41 39 35 34 34 32 32 32 30 29 28 27 27 27 27 26 23 20 19 19 19 19 18 19 19 20 22 22 22 21 20 21 23 22 20 19 19 17 17 18 18 17 17 16 15 15 16 19
39 39 39 40 41 41 42 42 43 42 41 40 38 38 39 39 37 35 34 34 35 35 35 36 37 38 38 38 37 37 37 36 35 36 37 37 37 39 38 34 32 32 31 32 33 32 31 29 29 30 29 28 26 22 20 19 19 19 19 19 19 20 21 22 22 21 20 20 20 21 19 17 17 18 17 18 18 17 15 15 15 15 17 18 20
37 38 38 40 41 41 42 42 41 40 39 38 37 38 38 37 36 34 33 34 35 35 36 37 38 38 37 36 35 34 33 33 32 33 33 34 36 38 36 32 30 31 31 32 33 33 31 30 30 31 29 27 23 20 18 18 17 18 19 20 20 21 21 20 20 20 20 19 18 17 15 13 14 14 15 14 13 11 11 13 15 17 17 17 17
37 38 39 41 42 43 43 42 40 39 38 37 37 38 37 36 35 34 34 34 35 36 37 38 38 37 36 35 34 32 30 29 29 29 30 31 34 36 35 32 30 31 32 32 33 32 31 31 32 30 27 24 21 18 17 16 17 18 19 19 20 21 20 19 19 19 16 13 11 10 8 8 8 7 8 9 10 11 13 15 18 18 15 12 12
36 38 40 43 44 44 43 42 40 38 38 38 37 37 36 35 35 36 36 36 36 37 37 35 34 35 36 36 35 32 29 27 26 25 27 29 33 36 36 32 29 29 29 30 31 31 30 30 29 26 23 22 20 17 15 15 17 18 18 19 20 21 20 20 19 16 11 9 8 7 7 7 8 8 10 11 11 12 14 15 14 14 12 10 10
39 40 42 44 44 43 42 41 40 38 38 38 37 36 36 36 36 37 37 36 35 35 34 33 32 33 34 34 32 29 26 24 23 24 25 28 32 34 34 32 29 28 28 29 30 31 29 26 23 22 22 20 17 15 13 15 17 18 17 18 19 21 22 20 17 14 11 11 10 11 13 13 14 14 14 12 10 10 10 8 7 7 8 9 11
42 45 45 43 41 41 41 40 40 39 38 37 36 37 36 35 36 36 35 34 33 33 33 33 31 30 29 29 27 25 24 23 23 24 25 27 30 33 33 31 29 28 28 29 29 27 25 23 22 22 21 19 16 13 13 16 18 17 16 17 20 22 21 18 15 13 13 14 14 16 18 17 17 15 12 9 7 6 5 4 6 9 10 12 13
45 45 43 39 38 39 40 40 40 39 38 37 36 36 36 36 36 36 34 33 33 32 31 31 29 28 26 26 25 24 23 22 21 22 23 25 29 32 32 31 30 29 28 29 28 26 24 24 24 23 20 18 16 14 15 17 17 16 16 18 19 20 18 16 14 14 15 16 17 18 18 16 14 11 7 5 5 4 5 7 11 14 14 13 13
44 41 38 37 38 39 39 39 39 37 37 37 37 35 35 36 37 36 35 34 32 30 29 28 27 25 24 24 24 23 21 19 18 20 22 24 29 32 32 30 30 30 28 28 27 27 26 25 24 22 19 16 14 14 16 16 16 17 17 17 17 17 16 15 15 15 15 15 16 16 15 13 9 5 4 5 6 8 10 12 14 15 16 14 13
39 35 34 35 36 38 38 38 39 38 38 40 39 37 36 35 36 36 36 34 32 29 28 27 26 24 23 22 21 20 19 18 17 18 21 24 27 30 30 29 30 31 30 28 26 25 24 23 21 18 15 13 13 14 15 16 17 17 16 15 15 15 15 15 14 13 13 12 13 14 12 8 5 4 5 7 9 11 12 13 14 16 15 14 13
33 31 32 33 34 36 37 38 38 38 39 40 39 37 35 35 35 35 36 34 31 28 27 26 26 24 22 21 19 18 18 17 16 18 21 24 27 28 28 28 29 30 28 24 23 23 22 20 17 14 12 11 12 13 15 15 15 13 12 12 13 13 13 13 12 10 10 10 10 10 9 7 7 8 8 9 10 10 11 14 16 16 13 13 14
27 29 31 32 34 35 36 37 38 38 39 40 39 37 35 34 32 31 32 31 28 26 26 26 26 24 22 21 20 19 18 18 18 20 22 24 27 28 27 27 27 27 23 21 20 20 19 16 13 11 10 10 11 13 14 12 11 10 10 11 11 12 12 11 10 9 9 9 8 9 9 8 9 10 11 11 10 11 13 16 16 14 12 14 16
22 26 29 31 33 35 35 33 32 31 30 30 30 29 30 29 27 24 24 23 24 25 26 25 24 23 23 22 22 21 20 19 20 23 26 27 28 27 26 25 24 23 21 19 18 17 14 12 11 10 10 10 11 12 11 10 10 11 11 11 11 11 11 11 11 10 10 9 9 11 11 11 12 13 11 11 12 13 15 16 15 13 13 16 18
12 15 20 24 26 29 30 30 29 28 28 29 30 28 26 27 26 24 24 23 22 24 24 23 23 23 23 23 22 22 21 21 22 25 28 30 29 27 25 24 23 21 20 18 17 15 13 11 10 10 10 10 11 11 10 11 12 12 12 12 11 11 12 13 12 12 12 11 12 13 13 14 14 13 11 12 13 14 13 12 13 14 15 17 19
11 10 13 19 24 28 31 33 34 34 33 33 33 30 28 28 28 28 30 31 28 26 26 25 25 26 25 24 22 21 21 23 24 26 30 32 32 30 27 24 23 22 21 19 17 14 13 12 11 11 11 12 12 13 13 14 15 14 13 13 14 14 14 14 14 14 14 14 14 15 15 14 13 11 11 12 12 11 11 11 13 14 16 17 18
29 24 20 22 27 31 33 35 35 36 35 33 30 29 29 31 29 27 29 32 30 28 27 28 29 29 29 28 26 23 23 25 26 27 29 32 32 31 29 26 25 23 21 19 17 15 13 12 12 12 13 14 15 15 15 16 17 16 16 16 16 16 16 16 17 16 15 15 15 13 10 8 8 9 9 10 9 8 9 11 13 14 16 18 18
36 35 30 26 28 30 33 34 34 34 35 35 32 28 27 29 31 29 28 27 26 24 25 27 29 29 29 30 29 28 27 27 26 26 28 29 29 29 27 26 26 25 22 19 16 14 14 13 14 14 15 16 17 17 17 17 18 19 19 18 18 18 18 18 18 17 15 13 11 8 6 6 6 6 6 6 7 7 8 10 13 15 17 17 17
21 26 26 26 27 29 31 34 34 32 32 34 35 33 29 27 27 27 26 24 22 22 22 24 25 27 27 27 26 24 24 24 24 24 25 25 25 24 23 24 25 25 23 20 17 16 16 15 16 16 16 17 18 18 18 19 19 20 20 20 20 19 19 18 17 14 11 9 8 6 6 6 6 5 5 5 6 7 8 11 13 14 15 15 16
16 17 19 21 23 24 25 29 33 33 31 31 33 33 31 27 22 21 21 20 20 21 21 21 22 23 24 23 22 21 21 21 22 22 22 22 22 22 21 21 22 22 22 20 18 18 18 17 17 17 17 18 18 18 18 19 20 20 21 21 21 21 20 17 13 9 9 9 8 6 7 7 7 6 5 5 6 8 10 11 12 13 14 15 15
19 20 21 23 27 27 25 25 29 31 30 30 31 31 30 27 23 21 20 19 18 19 20 21 22 21 20 19 18 18 19 20 20 20 20 20 20 20 19 18 18 19 20 21 20 19 19 19 18 18 18 18 17 17 18 19 19 18 18 18 17 17 15 11 7 8 10 9 7 7 8 8 7 6 5 5 6 8 10 10 11 13 14 15 17
22 23 23 25 28 29 27 26 28 29 30 30 29 28 27 27 27 26 24 21 18 17 18 20 22 21 20 19 17 17 18 18 18 18 18 17 17 17 18 18 17 18 20 22 22 21 20 19 19 18 17 15 14 13 12 9 7 6 6 6 7 8 8 9 10 11 10 9 8 9 10 9 7 6 6 5 6 7 8 9 11 13 15 16 19
25 25 26 27 27 27 27 28 29 29 29 29 28 28 27 27 27 26 24 22 20 18 17 19 21 22 22 22 21 19 18 18 18 17 17 16 17 17 18 19 20 21 22 23 23 22 20 19 18 16 14 12 11 11 10 10 9 7 7 7 8 10 12 13 12 10 8 7 9 10 10 9 7 5 5 5 6 6 8 10 12 14 16 17 19
25 25 26 27 28 27 27 28 30 30 29 28 28 28 28 27 26 25 24 24 23 21 19 19 20 21 22 23 23 21 20 19 19 18 18 18 18 19 21 23 24 26 26 25 23 22 20 18 17 14 12 13 15 14 12 10 8 7 8 9 12 13 14 14 11 7 5 6 6 6 6 5 3 2 3 4 5 6 9 11 13 14 16 17 18
22 23 24 26 26 27 27 27 28 29 30 29 29 29 28 26 26 26 25 24 23 23 22 21 21 20 20 20 21 21 20 19 19 19 19 19 20 20 22 24 25 26 26 24 23 22 20 18 16 13 12 14 15 13 11 9 9 9 9 10 11 12 12 10 7 5 5 5 4 3 2 2 1 2 3 3 6 8 9 11 13 14 15 16 17
20 22 25 26 27 27 26 27 28 28 28 27 28 28 26 25 25 25 24 23 24 24 24 23 23 23 22 21 21 21 20 20 20 20 21 22 22 22 22 22 23 25 24 23 23 23 22 21 17 14 13 15 15 13 11 11 11 11 10 10 10 10 9 6 4 4 5 5 4 4 3 2 2 2 3 4 7 9 10 11 13 14 15 16 17
20 22 25 27 27 27 26 27 27 27 26 26 26 27 26 25 25 25 24 24 24 24 24 23 23 24 24 23 23 23 22 22 22 23 24 24 24 23 22 21 22 23 22 22 22 22 22 22 19 16 16 16 14 13 12 12 12 11 10 10 10 9 7 4 3 4 6 5 4 5 5 5 4 3 3 5 7 9 10 11 12 13 15 17 17
21 23 25 25 25 25 25 25 24 23 23 24 24 24 23 22 22 23 24 24 23 24 26 25 24 24 25 25 25 25 24 24 24 25 25 25 25 23 21 20 21 21 21 22 23 22 22 21 19 17 17 17 14 13 13 13 13 11 9 9 9 8 6 4 3 4 5 4 4 5 7 6 5 4 5 6 7 8 10 11 12 13 15 17 17
23 23 23 24 24 23 23 23 22 21 22 22 22 21 21 20 20 20 22 23 24 24 25 25 25 25 24 23 23 24 24 24 25 25 25 26 26 24 21 20 19 19 18 19 20 21 20 18 17 17 18 17 15 14 14 13 12 11 10 9 8 6 5 5 4 4 4 4 5 5 7 7 4 4 5 6 7 8 9 11 12 13 15 16 17
23 22 21 22 23 23 22 22 23 23 22 22 23 22 21 21 22 22 22 22 23 23 24 23 23 24 23 22 22 22 21 21 22 24 24 25 25 25 22 21 20 17 15 14 16 18 18 17 16 18 18 17 15 15 14 13 11 11 10 9 7 6 5 5 5 6 6 5 5 7 7 6 4 5 6 7 8 9 9 10 11 13 15 16 16
19 20 21 22 23 23 23 23 25 25 24 24 24 24 24 24 24 25 24 23 22 23 23 22 21 22 22 21 20 20 18 18 19 21 22 22 23 23 22 21 20 18 15 12 12 15 17 17 17 18 17 15 14 13 12 11 10 10 9 8 7 7 7 6 6 7 7 7 8 8 7 6 5 6 8 9 9 9 9 10 11 13 15 15 16
15 16 18 20 22 22 23 23 25 25 25 25 25 26 27 28 27 26 25 24 23 22 23 22 21 20 20 20 20 19 18 17 17 18 18 19 19 18 18 18 19 19 16 13 11 14 18 19 18 16 14 12 12 11 10 10 10 10 9 9 8 8 6 6 7 8 8 8 9 8 7 6 7 8 9 9 9 9 9 9 11 14 15 14 16
12 12 13 15 17 18 19 21 24 25 23 23 26 28 28 27 26 26 25 25 23 22 22 22 21 20 20 21 22 21 18 17 16 16 15 15 15 14 14 15 16 16 16 14 14 17 19 18 16 15 13 12 12 11 10 10 10 9 9 8 6 5 5 6 8 8 8 8 7 6 6 7 8 10 10 10 9 9 8 9 12 13 14 14 16
8 9 10 10 11 11 10 10 13 14 13 14 21 27 27 26 26 26 25 24 24 23 22 21 20 20 21 22 22 22 20 18 17 16 14 13 13 13 13 14 15 16 16 17 18 19 18 16 15 15 14 13 12 10 10 10 10 9 7 5 4 3 4 6 7 7 6 6 6 6 7 8 10 11 11 10 9 8 8 9 10 11 12 14 16
8 7 6 7 9 10 7 5 2 7 9 11 15 20 20 21 23 25 25 24 24 24 23 21 20 21 21 22 22 22 21 19 18 17 15 13 12 12 13 15 17 18 19 20 20 18 17 17 16 15 14 13 12 12 12 11 9 7 5 3 3 3 3 5 5 5 5 6 6 7 9 10 12 12 10 9 7 7 7 8 9 10 12 13 15
13 10 8 10 12 14 13 12 13 15 15 17 20 22 20 17 17 18 21 23 24 23 22 21 21 22 23 22 21 21 20 19 19 18 16 14 13 13 14 15 17 19 21 22 21 20 19 19 17 16 15 15 14 13 13 10 7 5 3 3 3 3 4 4 4 4 5 5 7 8 10 10 10 9 8 7 7 6 6 7 7 9 12 13 15
11 10 10 11 13 14 17 20 21 18 15 16 20 22 22 20 17 17 18 20 21 21 21 21 21 22 23 22 20 19 18 17 18 18 16 14 14 15 16 17 18 21 23 24 23 21 20 19 18 16 16 14 13 12 10 7 5 4 3 2 2 4 5 5 5 5 5 6 8 9 10 9 9 8 7 7 7 6 5 6 7 9 12 13 13
10 9 8 8 9 11 15 18 18 15 13 13 14 17 20 22 23 24 25 24 23 23 23 22 21 21 21 20 20 19 17 16 15 15 15 14 15 15 16 18 21 24 26 25 23 21 21 20 18 16 15 14 13 11 9 7 5 5 3 2 2 4 5 6 6 6 6 7 9 10 9 8 8 8 7 8 7 5 4 5 7 10 11 11 10
7 7 7 7 7 8 10 12 13 13 12 11 12 14 16 20 22 24 24 24 23 22 22 21 20 19 20 20 20 19 18 16 15 15 15 16 16 16 17 20 25 27 26 24 23 23 22 20 18 17 16 16 14 11 9 7 6 5 5 3 3 4 5 6 6 7 7 8 9 9 8 8 7 7 7 7 6 4 4 5 7 8 8 8 9
Wind_Direction
193 194 196 199 202 205 208 210 211 212 212 212 212 213 213 211 210 210 209 209 209 209 210 211 211 210 210 210 211 211 211 211 212 213 213 214 214 214 212 212 215 218 219 220 221 223 226 227 229 231 230 228 224 217 211 210 213 212 210 214 215 220 228 219 213 230 244 251 259 266 275 283 287 293 297 298 300 298 288 285 289 292 294 292 289
193 194 195 197 201 203 206 208 209 210 211 212 213 214 214 213 211 210 210 210 210 211 212 212 212 211 210 211 211 211 212 212 212 212 213 214 215 215 215 214 215 216 218 220 221 223 227 228 231 231 230 230 226 220 216 217 216 213 212 215 220 223 226 228 228 231 245 255 259 265 274 279 282 288 295 298 302 301 294 289 291 293 296 296 293
193 194 195 197 200 202 204 206 207 209 210 212 213 215 215 214 212 210 210 211 211 212 213 212 211 210 211 211 212 212 212 211 211 212 214 215 216 216 217 217 217 217 218 221 221 221 225 229 231 230 229 229 228 225 225 225 221 217 218 220 223 226 229 235 236 234 244 257 261 264 269 271 272 278 286 292 296 298 298 299 300 299 299 300 299
193 193 195 197 199 200 202 204 205 207 210 211 213 215 215 214 212 210 210 211 212 213 213 212 211 211 212 212 213 213 212 211 211 212 214 216 217 218 219 220 220 221 223 223 221 220 224 228 230 230 230 232 233 231 227 227 226 224 224 225 226 232 238 240 240 241 245 253 257 262 265 266 269 275 280 286 291 293 295 299 299 298 299 301 301
192 193 195 197 198 199 200 202 204 207 209 212 214 215 214 214 213 211 211 211 212 213 212 212 212 212 213 213 213 213 213 213 213 213 214 216 218 219 220 221 223 225 227 226 222 221 225 229 231 231 233 235 235 230 224 225 228 228 230 233 234 238 242 238 237 240 243 248 256 262 266 269 275 279 281 287 291 290 289 291 292 292 295 298 298
192 194 195 196 197 199 199 201 203 206 209 212 214 214 214 214 213 212 212 212 212 212 212 212 213 213 214 214 214 214 215 215 215 215 215 215 216 218 221 224 227 229 228 227 226 226 227 230 232 232 234 237 234 227 225 227 232 235 238 241 242 243 241 236 234 236 240 248 258 264 266 270 277 282 284 288 291 289 286 285 285 285 288 292 295
192 194 195 196 198 199 199 201 203 206 209 211 213 213 213 213 214 213 213 212 211 212 212 213 214 214 214 214 215 215 215 216 217 216 215 214 213 215 220 225 229 229 228 227 228 229 229 230 231 231 232 234 232 228 230 233 235 238 242 245 247 246 245 242 238 236 239 248 257 263 268 273 276 280 286 290 286 281 279 278 279 280 283 288 292
193 194 195 196 198 200 201 202 204 206 209 211 212 213 213 214 214 214 213 212 212 212 213 213 214 214 215 215 215 216 216 216 216 216 215 214 214 214 218 224 228 228 227 228 228 228 228 230 231 232 232 233 234 234 236 236 235 237 242 248 250 252 253 248 240 237 239 245 254 261 269 275 277 280 286 287 277 272 275 275 276 281 285 285 289
193 194 195 198 200 201 202 203 204 206 208 210 212 213 213 214 215 214 213 213 213 214 214 214 214 214 215 216 216 216 216 217 217 216 215 214 214 215 217 222 226 226 224 225 227 228 228 229 231 233 234 237 238 239 238 236 235 238 243 248 254 257 255 246 238 237 240 244 251 258 264 270 275 279 282 280 274 274 278 273 271 279 284 283 288
194 195 197 199 200 201 202 203 204 205 207 209 211 212 213 214 214 214 214 214 214 214 214 214 214 214 215 216 216 217 218 219 219 219 219 216 214 214 217 222 225 226 222 220 223 227 227 228 231 233 235 236 236 235 235 234 234 239 245 251 255 254 247 241 241 243 241 241 248 254 257 264 273 277 278 281 280 276 273 268 268 275 278 280 290
196 197 200 201 200 200 202 203 204 205 207 209 210 211 212 213 214 214 214 214 214 213 213 213 214 215 216 217 217 218 220 221 222 222 221 218 215 215 220 223 224 224 220 217 219 223 223 224 226 227 228 229 231 231 232 232 234 239 246 253 256 254 249 249 250 249 244 244 251 255 254 260 271 278 279 281 280 275 274 273 269 268 269 274 286
197 200 201 201 199 200 202 203 204 206 207 208 210 211 211 212 213 213 213 213 213 211 211 212 213 215 216 218 219 220 222 224 225 223 221 218 218 221 223 223 222 222 218 215 218 220 218 216 215 217 220 225 231 232 230 232 237 240 246 254 259 260 260 260 258 255 253 251 253 256 256 260 272 279 280 281 281 281 283 279 270 267 270 274 272
198 200 201 200 200 201 202 203 204 206 207 208 209 209 209 211 213 213 212 212 211 210 210 211 213 214 216 218 220 222 225 226 225 223 221 221 222 224 222 221 221 221 216 214 217 217 213 209 208 214 222 229 233 231 229 233 238 241 249 256 260 261 262 262 261 261 261 258 256 260 266 271 275 280 286 287 286 287 285 278 276 275 274 276 277
199 200 201 201 202 202 202 203 205 207 207 207 207 207 209 211 213 212 211 211 210 209 210 211 213 215 216 218 220 223 225 225 224 224 223 223 225 224 221 219 221 221 215 212 215 215 211 208 210 217 222 225 227 226 228 234 239 245 253 258 259 260 261 261 262 262 264 265 265 271 280 285 285 289 296 295 290 287 281 278 281 281 281 286 290
199 201 201 202 203 202 202 203 205 206 207 206 205 206 208 210 211 210 209 209 209 210 211 212 214 217 218 219 220 221 223 224 224 224 224 225 226 224 220 217 218 218 213 212 215 214 209 209 215 218 217 217 220 222 228 236 242 248 254 256 258 261 263 266 268 270 274 278 278 281 289 294 293 295 300 299 296 291 285 282 284 288 291 292 292
200 200 201 202 203 203 203 203 204 205 204 203 203 205 207 208 209 207 207 208 209 210 213 214 216 217 217 217 218 219 221 222 223 224 225 225 225 222 216 214 214 214 212 213 213 210 207 210 215 215 213 214 216 221 230 237 244 249 254 259 263 266 269 271 274 278 282 284 283 285 291 296 296 297 299 300 299 298 292 285 287 292 294 293 294
201 201 202 203 203 204 203 202 203 203 201 201 202 204 204 205 205 204 204 205 206 209 212 214 214 214 213 214 215 215 216 219 221 223 223 223 222 218 214 212 212 211 210 209 207 205 206 211 212 210 211 215 219 224 231 237 244 251 257 264 268 270 273 276 281 284 281 275 276 282 291 299 299 296 296 296 298 299 294 289 293 298 296 291 291
203 202 204 204 204 204 203 202 201 200 200 201 201 201 202 202 203 203 203 204 205 207 209 209 209 209 210 211 212 213 214 217 219 220 220 220 220 216 212 209 207 206 204 200 199 201 205 207 207 208 214 219 221 223 229 237 244 251 258 264 269 271 276 283 289 287 271 257 264 279 289 296 297 298 303 302 299 299 296 295 303 304 296 292 295
205 205 207 206 204 203 202 201 200 199 199 200 199 199 199 200 201 202 202 203 202 203 203 201 201 204 207 209 210 211 212 214 214 215 216 218 219 215 208 203 200 199 197 192 191 196 201 203 206 214 219 218 216 220 229 237 244 252 260 265 267 270 276 285 287 277 265 265 277 288 293 297 300 305 307 303 298 300 305 314 331 330 321 320 319
207 208 208 207 204 202 201 200 200 199 199 198 197 197 197 197 198 197 197 197 196 194 193 192 192 194 198 201 203 204 206 205 205 208 213 216 216 211 205 200 197 194 190 185 185 191 198 203 207 213 216 214 217 227 235 239 245 254 261 262 263 267 276 283 278 271 276 285 291 295 296 299 302 304 305 306 305 307 316 333 342 339 336 329 319
209 210 208 204 202 201 201 200 200 198 197 194 193 194 194 193 192 190 188 187 185 183 183 184 184 185 188 192 195 198 202 202 202 205 209 212 212 209 204 201 197 191 184 181 183 187 193 198 203 208 212 215 225 234 237 242 249 256 258 259 262 267 275 276 270 271 284 294 297 298 299 300 301 300 307 323 327 321 315 316 320 324 327 323 312
211 210 206 201 199 198 199 199 197 195 193 190 188 188 189 188 185 182 178 177 175 174 175 176 177 178 181 188 193 196 201 206 207 207 208 209 210 208 204 200 196 189 179 177 181 187 192 198 204 209 213 221 232 239 242 249 256 258 261 264 265 265 265 265 268 279 290 296 298 299 301 302 300 297 313 327 324 315 308 308 313 319 322 321 314
211 209 203 199 196 195 195 194 192 190 188 185 183 182 181 179 175 172 170 169 167 166 168 169 169 169 173 181 188 193 199 203 207 209 208 206 207 207 204 199 194 188 181 180 185 191 196 202 207 211 218 228 237 241 248 257 260 261 265 265 259 255 256 261 271 283 290 295 301 304 306 305 300 304 319 321 315 308 305 308 315 319 319 316 315
206 203 199 195 192 190 189 188 186 184 182 180 177 174 172 168 165 165 164 162 160 159 160 162 162 162 165 171 178 187 194 196 200 205 203 199 200 202 201 196 191 188 187 189 195 199 202 207 211 216 223 231 238 247 256 260 258 256 253 245 242 245 251 260 270 276 280 288 297 301 302 300 302 308 313 311 304 300 304 311 316 318 316 314 315
198 194 192 190 187 183 180 179 179 178 177 175 171 167 164 160 157 156 155 154 154 153 154 157 159 159 162 168 174 183 188 189 191 193 192 192 194 197 198 195 192 191 194 200 205 206 207 209 212 218 225 231 240 249 253 249 240 233 229 230 236 244 250 253 254 254 262 273 279 283 287 292 302 306 302 295 291 296 305 310 312 316 319 319 321
190 188 185 181 178 173 168 166 165 164 163 160 155 151 149 144 139 138 142 149 154 154 153 154 156 158 163 169 175 180 183 184 185 184 183 185 189 192 193 192 192 194 198 201 201 201 202 206 210 215 221 227 237 242 239 229 220 221 225 228 232 237 240 238 236 241 254 266 274 281 286 291 300 303 296 284 287 299 307 310 313 320 325 325 324
180 182 174 167 162 156 149 141 134 130 129 128 126 124 128 135 140 145 153 160 160 155 154 154 156 161 167 172 176 178 178 180 182 182 182 184 187 189 189 188 189 192 194 193 192 192 193 193 197 205 212 219 228 229 220 215 217 221 225 225 225 227 231 233 238 247 259 268 276 282 288 292 297 297 288 281 290 303 310 314 315 319 325 326 323
111 107 120 126 126 126 125 122 120 118 120 126 131 135 144 155 159 162 168 172 168 160 157 160 165 169 172 172 170 170 174 180 182 183 186 189 189 189 189 188 189 189 188 185 182 182 183 183 186 196 207 213 215 211 210 217 223 225 227 229 229 230 234 241 247 251 258 268 278 284 291 295 294 286 279 285 299 311 317 317 317 319 325 326 321
124 116 111 111 114 118 120 122 123 125 129 135 141 147 156 162 163 165 172 175 174 169 167 171 175 176 175 173 169 168 175 183 184 185 189 192 192 192 192 191 189 186 184 182 179 177 180 185 190 198 205 209 209 210 216 227 230 229 232 235 236 238 242 247 250 253 260 271 279 284 289 289 280 274 278 292 309 319 321 321 321 322 325 324 322
139 137 135 133 130 128 126 127 130 134 138 140 139 139 145 153 160 165 169 172 176 180 182 183 183 180 177 176 176 176 178 180 182 186 191 193 195 196 197 195 192 190 189 191 191 189 188 190 196 203 208 208 209 216 226 234 236 238 240 241 243 247 250 251 255 260 266 268 267 264 261 260 263 269 280 299 315 323 324 324 324 324 327 327 327
130 133 136 139 141 139 135 135 137 137 138 138 136 133 132 139 152 162 166 169 176 184 187 186 184 182 180 178 179 180 178 175 177 184 189 191 193 195 196 196 197 198 200 200 199 197 195 195 198 205 209 212 218 228 238 242 244 247 250 250 252 254 256 259 264 263 253 239 230 230 241 251 255 261 276 300 317 324 324 324 325 329 334 334 331
105 112 119 126 132 135 135 136 135 134 135 135 135 134 132 131 136 147 156 164 171 174 174 174 177 181 180 175 175 180 182 179 180 182 184 187 190 193 195 198 200 203 205 203 199 198 199 200 203 207 212 218 227 237 246 252 255 259 260 260 260 259 259 264 265 244 215 211 218 232 245 247 247 256 276 294 308 318 322 325 332 337 339 338 335
121 125 131 133 131 132 137 137 134 134 135 135 135 136 137 135 132 131 138 150 160 165 167 170 174 179 179 174 174 178 180 179 179 178 179 183 186 190 196 200 201 203 203 201 200 201 202 204 209 213 217 224 235 248 255 260 263 264 262 261 262 261 257 250 226 201 199 207 223 239 244 243 249 263 276 287 305 320 326 333 342 345 341 336 333
132 136 143 142 137 138 142 141 135 134 135 136 137 138 140 141 139 137 136 140 146 154 164 173 180 184 185 184 185 182 175 172 171 171 170 171 176 186 193 194 196 201 204 204 204 203 203 206 211 215 221 231 241 246 245 238 231 227 225 227 236 236 216 192 183 188 198 212 232 243 244 245 257 272 279 292 312 325 335 344 345 342 338 333 330
134 140 143 140 136 136 139 138 135 135 137 138 139 140 140 142 142 141 141 142 141 141 150 165 176 183 187 189 190 186 177 170 167 168 168 169 174 181 185 185 187 193 201 206 207 205 205 207 209 211 216 218 207 192 175 164 161 161 163 165 172 178 178 178 182 190 206 230 246 250 248 250 261 279 295 313 326 334 342 342 336 332 333 332 330
135 140 139 136 134 135 137 138 138 139 140 140 141 142 142 142 142 141 143 145 145 143 144 151 162 173 182 186 188 187 182 178 175 175 178 181 184 184 183 185 188 193 198 203 205 205 205 206 204 202 197 186 177 173 172 174 174 171 165 163 166 171 175 179 185 202 230 243 242 241 241 243 265 306 313 321 335 341 339 334 331 331 334 334 331
132 135 134 134 135 137 137 138 139 140 141 142 144 145 144 143 143 143 143 144 144 144 144 146 150 158 166 173 178 180 180 179 180 181 182 185 189 190 189 190 192 195 197 200 201 203 202 199 201 202 193 182 179 181 185 184 178 170 162 160 164 170 175 181 196 220 226 213 208 220 228 215 266 313 309 320 336 337 333 332 334 336 336 335 333
141 139 138 138 138 138 137 138 140 142 143 144 146 146 146 147 147 146 147 148 148 146 146 149 152 156 159 162 166 169 171 170 172 176 179 183 187 191 194 196 197 198 199 199 201 203 201 201 206 209 195 185 185 187 186 180 174 170 164 163 167 173 177 183 201 214 209 211 227 246 244 221 230 270 294 321 331 331 332 335 338 337 336 335 334
143 140 141 142 142 142 142 142 144 144 145 147 149 151 152 153 154 154 154 153 154 154 155 157 161 165 167 167 168 168 169 169 172 176 180 185 189 192 196 201 202 203 203 202 201 203 204 207 212 210 197 190 190 189 188 182 176 172 171 172 174 177 178 183 204 209 210 224 246 243 232 223 221 243 287 313 323 328 334 338 339 338 336 335 334
142 142 144 144 143 143 144 144 145 147 149 151 153 155 157 158 158 160 160 160 162 164 164 165 170 175 176 175 174 174 174 175 179 182 185 187 189 191 195 201 203 203 203 202 202 204 207 211 212 204 196 195 195 192 190 186 180 178 181 180 178 179 180 184 195 201 207 234 260 243 222 211 211 241 286 306 316 324 331 336 339 339 338 337 336
146 147 148 148 146 145 144 145 147 150 154 156 157 159 162 163 164 166 168 168 170 172 172 174 179 182 182 180 181 182 183 183 185 187 189 190 191 191 193 195 196 197 199 203 205 205 206 208 207 201 197 198 197 193 189 186 184 184 187 185 185 190 195 191 186 193 217 254 261 225 198 195 215 258 287 302 311 315 321 329 334 335 336 337 336
147 150 150 150 150 150 149 151 156 159 160 163 164 165 167 169 172 177 180 180 179 178 178 180 184 185 183 182 184 186 188 190 190 190 192 194 195 195 194 192 190 190 194 199 202 203 205 206 203 198 197 196 193 189 187 187 190 192 191 191 195 201 203 200 200 210 228 238 218 194 190 203 237 269 291 304 306 306 314 325 331 332 334 335 335
143 150 154 153 154 157 159 160 163 165 166 168 170 172 174 176 180 185 187 186 184 182 181 182 184 185 184 184 185 188 191 195 196 196 197 197 199 201 201 199 198 197 197 197 197 202 206 203 193 188 189 191 191 192 192 193 195 196 193 194 197 196 197 205 213 217 220 212 199 198 208 228 258 285 300 306 304 303 315 327 329 329 332 335 334
132 143 152 155 159 165 167 167 169 171 172 173 176 178 180 180 181 185 187 185 183 183 182 181 181 181 180 180 183 188 193 197 199 200 201 201 203 205 205 207 209 210 210 210 203 194 191 186 178 177 180 183 186 191 194 196 199 200 195 191 191 194 208 226 226 216 211 206 205 212 229 250 277 296 305 308 304 303 313 324 327 328 332 334 332
131 134 141 150 159 166 168 172 178 180 178 175 177 180 183 182 180 181 184 182 179 178 179 178 177 176 174 175 180 186 191 193 194 196 198 198 199 200 202 205 208 207 204 199 188 181 180 178 175 174 175 175 177 184 191 195 197 198 196 197 204 220 241 237 221 211 209 213 219 231 249 270 288 297 302 303 299 296 305 317 323 328 331 331 330
144 133 133 146 159 163 171 188 190 177 165 164 170 175 181 181 178 177 179 177 172 172 173 174 175 174 172 173 178 184 188 190 191 194 198 200 200 198 197 193 189 188 187 184 181 181 182 183 181 178 174 173 177 186 193 194 195 199 208 223 245 259 242 218 207 205 213 223 239 258 271 281 289 294 296 296 287 279 293 311 320 328 331 328 328
124 123 142 166 169 170 188 226 184 129 137 152 157 160 166 170 169 170 171 170 167 168 170 173 177 179 177 176 180 185 188 191 193 192 196 202 206 207 207 200 191 187 187 188 189 191 190 188 187 186 184 186 192 197 196 195 200 211 232 263 276 255 227 213 210 218 231 247 266 280 283 286 289 290 291 285 265 261 289 311 321 330 329 325 329
112 118 145 163 162 161 162 152 140 142 148 143 135 135 139 146 156 164 168 167 167 169 172 176 183 186 184 183 185 187 190 194 197 198 201 205 208 213 218 214 206 200 197 194 194 195 195 193 194 195 195 194 196 196 195 198 208 221 244 284 278 243 227 222 223 237 256 273 288 295 292 289 290 289 282 265 244 253 293 317 326 329 326 326 334
115 117 131 141 144 144 137 132 138 149 147 130 126 132 139 144 155 168 175 176 177 178 179 183 187 189 187 187 187 188 191 196 202 206 208 207 206 210 215 215 212 206 201 198 197 197 197 195 195 195 196 196 197 198 200 207 220 228 246 282 263 234 227 229 237 251 266 279 295 302 298 290 287 284 267 244 236 254 292 312 319 323 325 329 338
125 121 116 108 115 129 129 127 130 135 132 132 145 154 154 158 168 177 181 184 185 182 182 186 188 188 189 190 187 185 187 191 195 199 198 195 194 198 203 207 207 203 200 200 201 200 198 196 194 195 198 202 203 205 208 216 227 237 250 258 229 220 224 231 241 254 267 283 298 303 296 288 286 276 251 232 232 252 280 296 309 319 326 335 343
123 131 128 107 100 112 122 123 124 124 129 151 179 184 174 171 174 175 175 179 181 181 184 189 190 191 194 193 188 185 187 188 189 193 196 195 194 192 192 197 199 199 199 202 203 201 198 197 198 200 203 203 201 203 212 223 232 237 232 216 198 204 215 228 242 254 266 284 297 297 290 286 281 257 226 218 224 240 267 295 313 324 333 343 345